Regional Weather Roundup
Issued by NWS

Home | Current Version | Previous Version | Graphics & Text | Print | Product List | Glossary On
Versions: 1 2 3 4 5 6 7 8 9 10 11 12 13 14 15 16 17 18 19 20 21 22 23 24 25 26 27 28 29 30 31 32 33 34 35 36 37 38 39 40 41 42 43 44 45 46 47 48 49 50
000
ASUS43 KMPX 220601
RWRMN
WEATHER ROUNDUP FOR MINNESOTA
NATIONAL WEATHER SERVICE TWIN CITIES/CHANHASSEN MN
100 AM CDT FRI SEP 22 2017


NOTE: "FAIR" INDICATES FEW OR NO CLOUDS BELOW 12,000 FEET WITH NO
SIGNIFICANT WEATHER AND/OR OBSTRUCTIONS TO VISIBILITY. N/A MEANS
CURRENT SKY AND/OR WEATHER CONDITIONS ARE NOT AVAILABLE.

MNZ060>063-068>070-220700-
   Twin Cities Metro

CITY           SKY/WX    TMP DP  RH WIND       PRES   REMARKS
TWIN CITIES    PTCLDY    76  69  79 SE12      29.84S
6HR MIN TEMP:  75; 6HR MAX TEMP:  81;

ST PAUL        PTCLDY    74  68  81 SE16G26   29.84S
CRYSTAL        CLEAR     75  66  73 SE10      29.81S
BLAINE         CLEAR     75  66  73 S10       29.83S
LAKEVILLE      PTCLDY    72  72 100 SE6       29.86S
EDEN PRAIRIE   CLEAR     79  70  74 S14       29.82S
6HR MIN TEMP:  77; 6HR MAX TEMP:  83;

SOUTH ST PAUL  PTCLDY    75  66  74 S9        29.85S
LAKE ELMO      FAIR      75  68  78 S10G18    29.87R
$$
MNZ001>005-007-008-013>017-022>024-027-028-220700-
   Northwest Minnesota

CITY           SKY/WX    TMP DP  RH WIND       PRES   REMARKS
BEMIDJI        PTCLDY    62  61  96 SE3       29.79F
HALLOCK          N/A     63  54  72 NW5       29.76R
ROSEAU           N/A     59  54  82 E5        29.77F
WARROAD        PTCLDY    63  57  82 NE5       29.79S
CROOKSTON      CLEAR     66  61  82 SE7       29.73S
FOSSTON        CLEAR     68  63  83 SE6       29.76F
DETROIT LAKES  CLEAR     68  64  88 SE6       29.78S
MOORHEAD       CLEAR     70  66  88 SE7       29.73S
PARK RAPIDS    PTCLDY    69  66  90 SE5       29.78F
MAHNOMEN       FAIR      68  65  90 SE8       29.75S
$$
MNZ006-009>011-018-025>026-220700-
   North Central Minnesota

CITY           SKY/WX    TMP DP  RH WIND       PRES   REMARKS
BAUDETTE       PTCLDY    61  56  83 E5        29.79S
FLAG ISLAND    CLEAR     64  54  68 SE6       29.78S
INTL FALLS     LGT RAIN  63  57  81 S3        29.81F
6HR MIN TEMP:  61; 6HR MAX TEMP:  64; 6HR PCP: TRACE;

WASKISH        PTCLDY    66  63  88 SE9       29.78F
BIG FORK       CLOUDY    64  61  88 S8        29.82S
LONGVILLE      CLEAR     64  63  94 SE5       29.80F
GRAND RAPIDS   CLEAR     62  59  90 SE8       29.84F
CRANE LAKE     CLOUDY    59  55  88 CALM      29.84F
ORR            PTCLDY    61  54  77 SE9       29.80F
COOK           PTCLDY    63  57  82 SE6       29.83F
WALKER         FAIR      65  63  93 CALM      29.80S
$$
MNZ012-019>021-037-220700-
   Northeast Minnesota

CITY           SKY/WX    TMP DP  RH WIND       PRES   REMARKS
DULUTH         PTCLDY    58  57  97 SE9       29.88F
6HR MIN TEMP:  57; 6HR MAX TEMP:  61;

ELY            MOCLDY    61  59  94 SE3       29.86F
HIBBING        CLEAR     56  54  93 SE3       29.85F
EVELETH        CLEAR     58  53  84 CALM      29.87F
DULUTH HARBOR  CLEAR     61  59  94 NE13      29.88F
SILVER BAY     MOCLDY    59  55  88 NE3       29.88F
GRAND MARAIS     N/A     61  57  87 E5        29.90F
G MARAIS ARPRT CLOUDY    57  54  88 E5        29.95F
$$
MNZ029>031-032-039>041-046>048-054>057-064-220700-
   West Central Minnesota

CITY           SKY/WX    TMP DP  RH WIND       PRES   REMARKS
FERGUS FALLS   PTCLDY    73  70  88 SE7       29.73S
WHEATON        PTCLDY    70  66  88 E6        29.72F
MORRIS         PTCLDY    75  72  88 SE10      29.72F
ALEXANDRIA     PTCLDY    72  69  90 SE10      29.78S
ELBOW LAKE     FAIR      72  69  92 SE6       29.74F
WADENA         PTCLDY    66  66 100 SE5       29.78S
GLENWOOD       PTCLDY    70  68  94 SE7       29.78S
APPLETON       CLEAR     75  68  78 SE9       29.72F
BENSON         MOCLDY    77  70  78 S9        29.76S
ORTONVILLE     PTCLDY    73  70  88 NE10      29.71F
MADISON        CLEAR     73  73 100 E9        29.72F
WILLMAR        FAIR      75  72  88 SE10      29.78S
$$
MNZ033>034-036-042>043-049>051-058-059-220700-
   Central Minnesota

CITY           SKY/WX    TMP DP  RH WIND       PRES   REMARKS
ST CLOUD       CLOUDY    72  70  93 SE6       29.79F
6HR MIN TEMP:  72; 6HR MAX TEMP:  77; 6HR PCP:  0.01;

SAUK CENTRE    FAIR      71  68  92 SE7       29.78S
PAYNESVILLE    CLEAR     75  71  85 SE10      29.79S
AITKIN         PTCLDY    64  63  94 E5        29.81F
PINE RIVER     HVY RAIN  63  61  94 SE5       29.84S
BRAINERD       CLOUDY    69  66  90 VRB5      29.79F
STAPLES        CLOUDY    70  66  88 CALM      29.78F
LITTLE FALLS   CLOUDY    70  63  78 SE8       29.79F
LITCHFIELD     PTCLDY    79  72  78 SE7       29.80S
BUFFALO        CLEAR     77  68  74 SE10      29.81F
MAPLE LAKE     CLEAR     77  71  81 S8        29.81F
HUTCHINSON     CLOUDY    76  72  86 SE8       29.82S
$$
MNZ037-044-045-052-053-220700-
   East Central Minnesota

CITY           SKY/WX    TMP DP  RH WIND       PRES   REMARKS
PRINCETON      CLOUDY    73  68  83 E5        29.81S
MORA           CLOUDY    70  64  83 CALM      29.84S
RUSH CITY      PTCLDY    72  65  77 SE8       29.83S
MOOSE LAKE     PTCLDY    59  55  88 CALM      29.85S
HINCKLEY       MOCLDY    70  68  94 CALM      29.84S
CLOQUET        CLEAR     57  54  88 SE6       29.87F
MCGREGOR       CLEAR     63  61  94 E6        29.84F
$$
MNZ071>073-080-081-089-090-097-098-220700-
   Southwest Minnesota

CITY           SKY/WX    TMP DP  RH WIND       PRES   REMARKS
MONTEVIDEO     CLEAR     72  72 100 S7        29.74S
GRANITE FALLS  CLEAR     75  71  87 SE8       29.75F
CANBY          CLEAR     69  68  96 SE5       29.73F FOG
MARSHALL       CLEAR     74  71  91 SE10      29.74S
REDWOOD FALLS  CLEAR     75  70  84 SE13      29.76S
OLIVIA         CLEAR     73  70  88 SE9       29.77S
PIPESTONE      CLEAR     75  72  88 S8        29.76S
WORTHINGTON    CLEAR     74  71  91 S13G20    29.80R
JACKSON        CLEAR     73  68  83 S10G17    29.82S
TRACY          CLEAR     75  72  90 S12       29.76S
SLAYTON        CLEAR     72  69  90 SE8       29.79R
$$
MNZ065>067-074>077-082>085-091>093-220700-
   South Central Minnesota

CITY           SKY/WX    TMP DP  RH WIND       PRES   REMARKS
MANKATO        CLEAR     78  70  76 S12G20    29.83R
NEW ULM        CLEAR     75  70  83 SE10      29.80R
ST JAMES       CLEAR     75  70  83 SE12G17   29.81S
FAIRMONT       CLEAR     75  70  84 S13       29.82S
GLENCOE        PTCLDY    79  73  83 SE6       29.81S
FARIBAULT      MOCLDY    79  70  73 S9        29.86S
OWATONNA       MOCLDY    77  70  78 SE14G21   29.87S
WASECA         PTCLDY    77  68  73 S10G21    29.87S
ALBERT LEA     PTCLDY    79  70  73 S9        29.87S
$$
MNZ078>079-086>088-094>096-220700-
   Southeast Minnesota

CITY           SKY/WX    TMP DP  RH WIND       PRES   REMARKS
ROCHESTER      CLEAR     73  68  84 S14       29.91S
6HR MIN TEMP:  72; 6HR MAX TEMP:  80;

RED WING       CLOUDY    75  64  69 SE8       29.88R
STANTON        CLOUDY    76  68  76 SE6       29.86R
DODGE CENTER   MOCLDY    75  66  73 S14       29.90R
WINONA         CLEAR     73  64  73 SE5       29.91S
AUSTIN         MOCLDY    73  66  78 S8        29.89F
PRESTON        CLEAR     73  67  82 S12G17    29.93S
$$
ABBREVIATIONS USED IN REMARKS
   TC - TEMPERATURES IN CELSIUS
  WCI - WIND CHILL INDEX
   HX - HEAT INDEX
  VSB - VISIBILITY
$$




USA.gov is the U.S. government's official web portal to all federal, state and local government web resources and services.